Location: Santa Maria di Sala
(45.5070°N, 12.0300°E)
Time: 20:34:30
(UTC+02:00)

Envisat - Visible Passes

Search period start: 21 September 2023 00:00
Search period end: 01 October 2023 00:00
Orbit: 763 x 764 km, 98.2° (Epoch: 20 September)

Date Brightness Start Highest point End Pass type
(mag) Time Alt. Az. Time Alt. Az. Time Alt. Az.
21 Sep 4.9 04:00:10 10° NE 04:04:20 25° E 04:07:37 14° SE visible
21 Sep 3.4 05:38:41 10° N 05:43:29 44° WNW 05:47:47 13° SW visible
22 Sep 5.8 03:25:04 10° ENE 03:26:41 11° E 03:28:18 10° ESE visible
22 Sep 2.9 05:01:17 10° NNE 05:06:24 88° ESE 05:10:03 19° SSW visible
23 Sep 4.1 04:24:17 10° NNE 04:29:06 41° E 04:32:18 19° SSE visible
23 Sep 4.0 06:03:39 10° N 06:07:54 28° WNW 06:12:09 10° WSW visible
24 Sep 5.3 03:47:57 10° NE 03:51:37 20° E 03:54:34 13° SE visible
24 Sep 3.1 05:25:59 10° N 05:30:57 56° WNW 05:34:43 17° SW visible
25 Sep 3.2 04:48:42 10° NNE 04:53:48 69° ESE 04:56:59 23° S visible
25 Sep 4.5 06:28:55 10° NNW 06:32:14 18° WNW 06:35:33 10° W visible
26 Sep 4.5 04:11:53 10° NNE 04:16:26 32° E 04:19:14 19° SE visible
26 Sep 3.7 05:50:50 10° N 05:55:24 35° WNW 05:59:23 13° SW visible
27 Sep 5.6 03:35:57 10° NE 03:38:51 15° E 03:41:29 11° ESE visible
27 Sep 2.9 05:13:18 10° N 05:18:23 72° WNW 05:21:38 22° SSW visible
28 Sep 3.6 04:36:10 10° NNE 04:41:09 53° E 04:43:53 26° SSE visible
28 Sep 4.2 06:15:55 10° NNW 06:19:46 22° WNW 06:23:37 10° WSW visible
29 Sep 4.9 03:59:33 10° NE 04:03:44 25° E 04:06:08 18° SE visible
29 Sep 3.3 05:38:04 10° N 05:42:53 44° WNW 05:46:17 18° SW visible
30 Sep 5.8 03:24:25 10° ENE 03:26:05 11° E 03:27:44 10° ESE visible
30 Sep 2.9 05:00:41 10° NNE 05:05:47 89° ESE 05:08:32 28° SSW visible
